This is the latest recevied weather packets stored in our database for station/object KC0RKM-13. If no packets are shown the sender has not sent any weather packets the latest 10 day(s).
| Time | Temp. | Humidity | Pressure | Rain* | Wind** | Luminosity | Snow |
|---|---|---|---|---|---|---|---|
| 1788574204 | 28.89° C | 62% | 1011.8 hPa | 0 mm | - | - | - |
| 1788573604 | 28.89° C | 62% | 1011.8 hPa | 0 mm | - | - | - |
| 1788573004 | 29.44° C | 62% | 1011.7 hPa | 0 mm | - | - | - |
| 1788572404 | 29.44° C | 61% | 1011.4 hPa | 0 mm | - | - | - |
| 1788571804 | 30° C | 60% | 1011.4 hPa | 0 mm | - | - | - |
| 1788571204 | 29.44° C | 62% | 1011.2 hPa | 0 mm | - | - | - |
| 1788570634 | 30° C | 60% | 1011 hPa | 0 mm | - | - | - |
| 1788570003 | 31.67° C | 57% | 1010.8 hPa | 0 mm | - | - | - |
| 1788569404 | 32.22° C | 52% | 1011 hPa | 0 mm | - | - | - |
| 1788568803 | 32.78° C | 52% | 1010.7 hPa | 0 mm | - | - | - |
| 1788568204 | 33.89° C | 48% | 1010.7 hPa | 0 mm | - | - | - |
| 1788567604 | 34.44° C | 44% | 1010.7 hPa | 0 mm | - | - | - |
| 1788567004 | 35° C | 42% | 1010.5 hPa | 0 mm | - | - | - |
| 1788566404 | 35° C | 43% | 1010.5 hPa | 0 mm | - | - | - |
| 1788565803 | 35.56° C | 41% | 1010.6 hPa | 0 mm | - | - | - |
| 1788565204 | 35.56° C | 41% | 1010.6 hPa | 0 mm | - | - | - |
| 1788564604 | 35.56° C | 40% | 1010.8 hPa | 0 mm | - | - | - |
| 1788564003 | 36.11° C | 40% | 1010.8 hPa | 0 mm | - | - | - |
| 1788563403 | 36.11° C | 40% | 1010.6 hPa | 0 mm | - | - | - |
| 1788562803 | 36.67° C | 39% | 1010.6 hPa | 0 mm | - | - | - |
| 1788562203 | 36.11° C | 39% | 1010.6 hPa | 0 mm | - | - | - |
| 1788561604 | 36.11° C | 38% | 1010.8 hPa | 0 mm | - | - | - |
| 1788561003 | 36.11° C | 39% | 1010.7 hPa | 0 mm | - | - | - |
| 1788560403 | 36.11° C | 39% | 1010.6 hPa | 0 mm | - | - | - |
| 1788559804 | 36.67° C | 39% | 1010.7 hPa | 0 mm | - | - | - |
* Rain latest hour (hover to see other rain measurements)
** Current wind speed in m/s (hover to see current wind gust speed)